User: anonymous   Login
Location: Unspecified
(0.0000°N, 0.0000°E)
Time: 08:03:18
(UTC+00:00)
Language:

COSMOS 2508 - Orbit

View from above orbital plane
View from above orbital plane
View from above satellite
View from above satellite

Ground track
Ground track

The orbit data is extracted from the following two-line orbital elements,

1 40921U 15050B   20223.71599444 +.00000023 +00000-0 +96687-4 0  9994
2 40921 082.4895 329.0266 0013801 005.7584 354.3651 12.42873820221463
Epoch (UTC): 10 August 2020 17:11:01
Eccentricity: 0.0013801
inclination: 82.4895°
perigee height: 1483 km
apogee height: 1505 km
right ascension of ascending node: 329.0266°
argument of perigee: 5.7584°
revolutions per day: 12.42873820
mean anomaly at epoch: 354.3651°
orbit number at epoch: 22146

The dashed part of the orbit path shows where the satellite is in the earth's shadow,  

DLR